Content
SEND FEEDBACK

Daily
Averages
Monthly
Summary
Canada

AMHERST, NOVA SCOTIA


Home > North America > Canada > Nova Scotia
Elevation: 66 feet     Latitude: 45 46N     Longitude: 064 15W

WEATHER
 
SELECT A DAY
Number of Records: 96,527;   Date Range: 6/19/04 - 7/8/14
 
SHARE

PRINT THIS DATA

[ ← Previous Day ]
WEATHER ALMANAC - SEPTEMBER 15, 2013
[ Next Day → ]
[ °C ]   °F
Weather ElementAverageHighLow
Temperature57.4 °F65.8 °F (4:00 pm)50.9 °F (7:00 am)
Dewpoint51.3 °F55.4 °F (1:00 am)47.8 °F (7:00 am)
Humidity80.1 %96 % (5:00 am)55 % (3:00 pm)
Barometer29.97 in30.01 in (10:00 am)29.89 in (1:00 am)
Wind Speed8.9 mph16.1 mph (6:00 pm)
Wind Gust23 mph (12:00 pm)
Weather ElementAverage
Wind DirectionWSW (231.1 °)

Weather ElementTotal
Precipitation---
Heating Degree Days6.7 (Base 65)
Growing Degree Days8.3 (Base 50)
Averaged from 27 records on September 15, 2013
WEATHER CONDITIONS BREAKOUT
WIND DIRECTION BREAKOUT
WEATHER BY HOUR - SEPTEMBER 15, 2013
[ °C ]   °F
Local TimeTemperatureDewpointHumidityBarometerVisibilityWind DirectionWind SpeedGust SpeedPrecipitationEventsConditions
1:00 AM57.0 °F55.4 °F94 %29.89 inSSW (210°)5.8 mph
2:00 AM55.8 °F54.3 °F95 %29.91 inSouth (180°)4.6 mph
3:00 AM55.0 °F53.0 °F92 %29.91 inSouth (190°)3.5 mph
3:00 AM54.9 °F53.4 °F95 %29.91 inSouth (190°)3.5 mph
4:00 AM53.8 °F52.5 °F95 %29.93 inSouth (180°)2.3 mph
5:00 AM53.8 °F52.7 °F96 %29.95 inSSW (200°)2.3 mph
6:00 AM52.5 °F50.2 °F92 %29.97 inWest (280°)5.8 mph
7:00 AM50.9 °F47.8 °F89 %29.99 inWest (260°)4.6 mph
8:00 AM52.7 °F48.4 °F85 %30.00 inWest (280°)4.6 mph
9:00 AM56.0 °F50.0 °F75 %30.00 inNW (310°)5.8 mph
9:00 AM55.8 °F50.2 °F82 %30.00 inNW (310°)5.8 mph
10:00 AM57.7 °F50.2 °F76 %30.01 inWSW (250°)5.8 mph
11:00 AM59.2 °F50.2 °F72 %30.01 inWSW (250°)9.2 mph
12:00 PM61.0 °F50.5 °F68 %30.00 inWSW (240°)15.0 mph23.0 mph
1:00 PM62.6 °F52.5 °F70 %30.00 inWSW (250°)11.5 mph
2:00 PM64.2 °F52.2 °F65 %29.98 inWSW (240°)9.2 mph
3:00 PM65.0 °F53.0 °F55 %29.97 inWSW (240°)12.7 mph
3:00 PM65.3 °F52.7 °F64 %29.97 inWSW (240°)12.7 mph
4:00 PM65.8 °F53.4 °F64 %29.96 inSW (220°)12.7 mph
5:00 PM62.8 °F53.1 °F71 %29.96 inWSW (240°)15.0 mph20.7 mph
6:00 PM61.7 °F50.5 °F67 %29.96 inSW (220°)16.1 mph21.9 mph
7:00 PM58.1 °F50.0 °F74 %29.97 inSSW (210°)16.1 mph
8:00 PM55.4 °F49.5 °F80 %29.97 inSW (220°)13.8 mph
9:00 PM54.0 °F51.0 °F84 %29.99 inSW (220°)12.7 mph
9:00 PM54.5 °F50.5 °F86 %29.99 inSW (220°)12.7 mph
10:00 PM53.1 °F49.8 °F89 %29.97 inSSW (210°)10.4 mph
11:00 PM52.3 °F49.3 °F89 %29.97 inSouth (180°)6.9 mph
Hourly data recorded from CXNP, located miles away from Amherst, Nova Scotia







STORIES FROM OUR PARTNERS